Wind_Speed
8 8 7 7 7 8 8 10 11 12 13 14 14 14 14 13 12 12 11 11 10 10 10 9 8 8 8 8 8 7 7 7 7 7 7 7 6 6 7 7 7 7 7
6 7 6 6 6 7 8 9 11 12 12 13 13 13 13 12 12 11 11 11 10 10 9 8 8 8 7 7 7 7 7 7 7 7 7 6 6 6 6 6 6 6 6
5 5 5 5 6 7 8 9 10 11 12 12 12 12 12 12 11 11 10 10 10 9 9 8 7 7 6 6 6 6 6 6 6 6 6 6 6 6 6 6 5 6 6
5 5 5 5 5 6 7 9 10 11 12 12 12 12 12 11 11 10 10 9 9 8 8 7 7 6 6 6 5 6 6 5 5 6 5 5 5 5 5 5 5 5 5
4 5 5 5 6 6 7 8 9 10 11 11 11 11 11 10 10 9 9 8 8 8 7 7 6 6 6 5 5 5 6 5 5 5 5 4 4 4 4 4 4 4 4
4 4 5 5 6 6 7 8 9 10 10 11 11 10 9 9 9 8 8 7 7 7 7 7 7 6 5 5 5 5 5 5 5 4 4 4 4 3 3 3 3 3 4
3 3 3 4 5 6 6 7 8 9 10 10 10 9 8 8 8 7 7 7 7 7 6 6 6 5 5 5 5 5 4 4 4 4 4 4 3 3 3 3 3 3 3
3 3 3 4 5 5 6 7 8 9 9 9 9 9 8 8 7 7 6 6 6 6 6 5 5 5 5 4 4 3 3 3 3 3 3 4 3 3 3 3 3 2 2
2 3 4 4 5 5 6 7 8 9 9 8 8 8 8 7 6 6 5 5 5 5 5 4 4 4 4 4 3 3 2 2 2 3 3 3 3 3 2 3 3 3 3
2 3 4 5 5 6 6 7 8 8 8 8 8 8 7 7 6 5 4 3 3 3 3 4 3 3 3 3 3 2 1 1 1 2 2 3 3 3 3 3 3 3 3
2 3 3 4 6 6 7 8 8 8 8 8 7 7 7 6 5 5 4 3 2 2 2 3 3 2 2 2 2 1 1 1 1 2 2 3 3 3 3 3 2 2 3
2 3 4 5 6 7 7 8 9 9 8 8 7 6 6 6 5 5 4 3 2 1 1 2 2 2 2 1 1 1 0 0 1 1 2 2 3 3 3 2 3 3 3
3 4 4 5 6 7 8 9 9 9 9 8 7 7 6 5 5 5 4 3 2 1 1 2 2 2 1 1 1 0 0 0 1 1 2 2 3 3 3 3 3 3 3
4 4 5 5 6 7 8 9 10 9 9 8 8 8 6 6 5 5 4 3 2 2 1 2 2 2 1 1 1 0 0 0 1 1 2 2 3 3 3 3 3 3 3
5 6 6 6 7 8 8 10 10 10 9 9 8 8 7 6 6 5 4 3 3 2 2 2 3 2 2 2 1 1 1 1 1 2 2 2 3 3 3 4 4 3 3
6 7 8 8 8 9 10 11 11 11 10 10 9 8 8 7 7 6 4 4 3 3 3 3 3 3 2 2 2 2 2 2 1 2 2 2 2 2 3 3 3 4 4
8 9 9 10 10 10 11 12 12 12 11 11 11 9 8 8 8 6 5 5 4 4 4 3 3 3 3 3 2 2 2 2 1 1 2 2 2 2 2 3 3 3 3
9 9 10 10 11 11 12 14 14 13 13 12 12 11 10 9 8 7 6 6 6 5 5 4 4 4 3 3 3 3 2 2 2 1 2 2 1 1 1 2 3 3 3
11 11 11 12 12 12 13 15 15 15 14 14 13 12 12 11 9 9 8 7 7 6 6 5 4 4 3 3 3 3 3 2 2 2 1 1 1 1 1 1 2 2 2
13 13 13 13 13 13 14 15 16 16 15 14 14 14 13 12 10 10 9 8 7 7 6 5 4 4 4 4 4 3 3 2 2 2 2 1 1 1 1 1 2 2 2
14 15 14 14 14 14 15 15 17 17 16 16 15 14 13 12 11 10 10 9 8 8 7 6 6 5 5 4 4 3 3 2 2 2 2 2 2 2 1 1 1 1 2
15 15 15 16 15 14 15 16 17 17 16 16 16 15 14 13 12 12 11 11 10 9 8 7 6 6 5 5 5 4 3 3 2 2 2 2 2 2 1 1 1 1 1
15 15 15 15 15 15 16 16 17 17 17 16 16 16 16 15 14 13 13 12 11 10 8 8 7 6 5 6 5 4 4 4 3 3 3 3 2 2 1 1 1 1 1
15 15 13 13 14 15 16 16 16 17 17 17 16 16 15 15 15 14 13 12 11 10 10 9 9 8 7 7 6 6 5 5 4 3 3 3 3 2 2 2 2 2 2
15 14 14 13 13 15 16 16 16 17 18 18 17 16 16 15 15 14 14 13 12 11 11 10 10 10 9 8 7 7 6 6 5 5 4 3 3 3 3 3 3 4 3
15 15 14 12 13 15 16 16 16 17 18 18 18 17 16 16 16 16 15 14 13 13 12 12 12 11 10 10 9 8 8 7 6 6 5 4 4 4 4 4 4 4 4
Wind_Direction
100 98 101 104 112 118 121 120 116 112 108 105 103 101 100 99 98 97 98 99 99 100 99 99 99 97 95 96 99 102 101 103 106 105 108 112 111 107 106 107 104 105 104
110 104 106 113 119 126 130 125 120 117 114 110 107 104 103 101 99 97 97 100 101 101 101 102 100 98 101 101 102 102 104 107 111 108 110 108 104 104 106 110 107 108 109
121 122 118 124 128 132 133 130 126 122 118 115 111 107 106 103 100 98 97 98 99 100 100 102 102 102 101 101 105 106 107 109 112 113 112 107 106 109 110 114 116 113 113
124 130 132 135 138 135 136 135 131 126 122 119 115 112 108 106 103 101 99 98 99 101 101 103 102 105 101 104 109 112 115 115 115 117 113 111 113 112 116 117 120 121 121
121 128 136 144 144 145 145 141 137 132 128 123 119 116 113 109 105 104 100 98 99 100 99 99 99 101 104 108 110 118 124 120 119 123 118 118 116 116 120 128 128 125 126
126 135 139 147 149 154 154 149 144 139 135 130 124 120 117 113 108 104 100 97 97 96 96 99 97 100 102 106 113 118 121 123 124 128 129 129 126 126 129 136 129 125 130
136 148 157 165 163 163 162 158 151 146 142 136 129 124 122 119 114 107 102 96 93 93 94 97 98 102 103 106 107 114 122 129 137 141 146 148 144 144 150 158 145 147 147
147 161 171 182 182 176 173 168 160 156 150 144 137 130 127 125 120 114 107 99 94 94 95 97 99 106 106 105 108 118 125 131 148 156 159 169 176 179 185 172 164 160 157
176 180 189 191 189 185 182 176 168 163 159 154 148 140 132 130 128 123 117 108 98 95 97 96 97 102 109 112 118 123 130 133 145 166 174 184 191 194 197 192 187 183 181
182 187 195 201 201 200 192 183 175 171 168 164 159 152 145 140 138 133 127 119 109 104 102 102 106 112 109 109 116 126 129 141 158 181 191 204 205 204 205 205 204 200 192
223 208 208 211 210 209 202 188 182 179 175 172 167 162 159 155 152 146 137 129 126 120 109 113 119 115 111 115 122 126 132 175 187 189 212 217 221 221 214 218 222 204 206
234 225 223 220 212 211 205 195 190 186 184 183 179 175 171 169 166 159 156 150 145 139 137 139 139 129 123 131 129 138 149 164 202 221 219 219 225 226 223 235 249 236 236
250 238 233 229 220 213 206 199 195 191 191 192 188 184 183 178 176 171 173 178 175 173 174 166 159 155 143 134 139 129 236 277 227 223 233 233 226 228 234 249 260 256 248
252 248 242 239 227 220 210 204 201 198 197 197 195 191 192 191 189 186 188 188 196 208 204 187 177 176 178 172 179 250 263 268 250 252 252 243 234 239 250 258 259 256 263
257 254 252 245 234 224 219 212 208 206 206 202 199 199 200 200 197 198 199 200 209 207 195 187 182 191 193 198 214 246 257 252 259 256 260 250 240 249 249 261 262 270 274
263 257 257 252 242 233 226 219 216 216 214 209 205 202 206 207 205 208 211 215 211 205 202 199 195 202 212 219 235 247 254 257 262 255 249 247 248 253 262 277 282 285 288
266 260 259 255 248 239 231 222 220 217 217 216 216 212 209 209 209 212 218 218 210 204 206 208 209 213 221 223 229 239 249 250 240 252 236 229 241 262 282 300 306 307 303
275 267 262 257 253 245 235 225 222 220 220 222 223 222 217 212 210 214 220 214 208 205 210 211 210 222 229 224 225 236 244 239 227 241 229 229 246 269 294 304 313 313 315
279 273 264 257 255 249 240 229 225 224 224 225 226 226 224 221 217 218 217 214 209 210 210 212 217 228 230 231 238 242 242 236 237 253 254 246 255 263 300 316 334 331 333
277 274 269 263 256 251 244 234 230 228 227 227 229 228 226 224 225 222 217 215 213 212 212 218 223 229 226 233 236 235 237 234 236 240 245 249 256 257 297 327 338 338 336
274 272 271 267 260 251 240 230 228 227 228 227 228 228 227 226 226 222 219 217 216 218 220 226 225 223 220 224 225 225 229 229 233 245 253 259 263 269 281 298 323 336 343
276 275 272 267 258 246 236 229 227 228 228 227 225 225 228 226 225 224 222 220 217 221 224 227 227 224 222 216 213 218 222 224 226 246 249 251 251 252 261 271 316 333 344
275 278 274 265 256 244 237 235 232 230 230 226 225 224 225 225 224 225 224 223 221 224 225 227 227 226 223 214 213 221 224 227 233 242 242 241 245 253 261 271 292 302 311
273 273 270 264 252 240 232 233 234 229 228 228 227 227 224 224 224 224 224 225 226 227 228 231 231 229 226 221 219 224 228 229 233 234 235 238 245 254 263 267 276 284 292
271 271 268 262 250 240 233 232 231 226 227 228 228 228 225 225 224 224 226 226 227 230 232 232 230 226 227 225 222 225 227 227 230 232 238 242 249 257 259 268 275 280 285
271 273 270 265 255 242 235 232 230 228 229 229 229 228 227 227 225 226 227 228 229 232 235 235 231 227 228 226 227 229 230 231 232 236 242 246 253 258 262 269 273 276 282
Height
5887 5887 5887 5887 5887 5887 5887 5888 5888 5888 5888 5888 5888 5889 5889 5890 5890 5890 5890 5890 5890 5890 5891 5891 5891 5891 5892 5892 5892 5892 5893 5893 5893 5893 5893 5893 5893 5893 5893 5893 5893 5893 5893
5888 5887 5888 5888 5888 5888 5888 5888 5888 5889 5889 5889 5890 5890 5890 5891 5891 5892 5892 5892 5892 5892 5892 5892 5893 5893 5893 5893 5893 5893 5894 5894 5894 5894 5894 5894 5894 5894 5894 5894 5895 5894 5894
5888 5888 5888 5889 5889 5889 5889 5889 5889 5890 5890 5890 5891 5891 5892 5892 5892 5893 5893 5893 5893 5893 5893 5893 5894 5894 5894 5894 5894 5894 5895 5895 5895 5895 5895 5895 5895 5895 5895 5895 5895 5895 5895
5888 5888 5889 5890 5890 5890 5890 5890 5890 5891 5891 5892 5892 5892 5893 5893 5893 5894 5894 5894 5894 5894 5894 5895 5895 5895 5895 5895 5895 5895 5895 5896 5896 5896 5896 5896 5896 5896 5896 5896 5896 5896 5896
5888 5889 5889 5890 5890 5891 5891 5891 5891 5892 5892 5893 5893 5893 5894 5894 5894 5895 5895 5895 5895 5895 5895 5895 5895 5895 5895 5895 5896 5896 5896 5896 5897 5897 5897 5897 5897 5897 5897 5897 5897 5897 5897
5889 5889 5890 5890 5891 5891 5891 5892 5892 5892 5893 5893 5894 5894 5895 5895 5895 5896 5896 5896 5896 5896 5896 5896 5896 5896 5896 5896 5896 5897 5897 5897 5897 5897 5897 5898 5898 5898 5898 5898 5898 5898 5898
5889 5889 5890 5891 5891 5891 5892 5892 5892 5893 5894 5894 5894 5895 5895 5896 5896 5896 5897 5897 5897 5897 5897 5897 5897 5897 5897 5897 5897 5898 5898 5898 5898 5898 5898 5898 5898 5898 5899 5899 5899 5898 5898
5889 5889 5890 5890 5891 5892 5892 5892 5893 5893 5894 5895 5895 5896 5896 5897 5897 5897 5897 5898 5898 5898 5898 5897 5897 5897 5898 5898 5898 5898 5899 5898 5898 5898 5898 5899 5899 5899 5899 5899 5899 5899 5899
5889 5889 5890 5890 5891 5891 5892 5892 5893 5894 5894 5895 5896 5896 5897 5897 5898 5898 5898 5898 5898 5898 5898 5898 5898 5898 5898 5898 5898 5899 5899 5899 5899 5899 5899 5899 5899 5899 5899 5899 5899 5899 5899
5889 5889 5889 5890 5890 5891 5891 5892 5893 5894 5895 5895 5896 5897 5897 5898 5898 5898 5898 5898 5899 5899 5899 5899 5899 5898 5898 5899 5899 5899 5899 5899 5899 5899 5899 5899 5899 5899 5899 5899 5899 5899 5899
5888 5889 5889 5889 5890 5890 5891 5891 5892 5893 5894 5895 5896 5896 5897 5898 5898 5898 5899 5899 5899 5899 5899 5899 5899 5899 5899 5899 5899 5899 5899 5899 5899 5899 5899 5899 5899 5899 5899 5899 5899 5899 5899
5888 5888 5888 5889 5889 5889 5890 5891 5891 5892 5893 5894 5895 5896 5897 5898 5898 5898 5899 5899 5899 5899 5899 5899 5899 5899 5899 5899 5899 5899 5899 5899 5899 5899 5899 5899 5899 5899 5899 5899 5899 5899 5899
5887 5887 5887 5888 5888 5889 5889 5890 5891 5892 5892 5893 5894 5895 5896 5897 5898 5898 5899 5899 5899 5899 5899 5899 5899 5899 5900 5900 5900 5899 5899 5899 5899 5899 5899 5899 5899 5899 5899 5899 5899 5899 5899
5886 5886 5886 5887 5887 5888 5888 5889 5890 5891 5892 5893 5894 5895 5896 5897 5897 5898 5899 5899 5899 5899 5899 5899 5899 5899 5899 5900 5900 5900 5899 5899 5899 5899 5899 5899 5899 5899 5899 5899 5899 5898 5898
5885 5885 5885 5885 5886 5886 5887 5888 5889 5890 5891 5892 5893 5894 5895 5896 5897 5898 5898 5898 5898 5898 5898 5899 5899 5899 5899 5899 5899 5899 5899 5899 5899 5899 5898 5898 5898 5899 5898 5898 5898 5898 5898
5884 5884 5884 5884 5884 5885 5886 5887 5888 5889 5890 5891 5892 5893 5894 5895 5896 5897 5898 5898 5898 5898 5898 5898 5899 5899 5899 5899 5899 5899 5899 5899 5899 5898 5898 5898 5898 5898 5898 5898 5898 5897 5897
5882 5882 5882 5882 5882 5883 5884 5885 5886 5887 5888 5889 5891 5892 5893 5894 5895 5896 5897 5897 5897 5898 5898 5898 5898 5898 5899 5899 5899 5899 5899 5898 5898 5898 5898 5898 5898 5898 5898 5898 5897 5897 5897
5880 5880 5880 5880 5881 5881 5882 5883 5884 5885 5887 5888 5889 5890 5892 5893 5894 5895 5896 5896 5897 5897 5897 5898 5898 5898 5898 5898 5898 5899 5899 5898 5898 5898 5898 5898 5898 5897 5897 5897 5897 5897 5896
5878 5878 5878 5878 5878 5879 5880 5880 5882 5883 5885 5886 5887 5889 5890 5891 5892 5894 5895 5895 5896 5896 5897 5897 5897 5898 5898 5898 5898 5898 5898 5898 5898 5898 5898 5898 5897 5897 5897 5897 5897 5896 5896
5875 5875 5875 5875 5876 5876 5877 5878 5879 5881 5883 5884 5885 5886 5888 5890 5891 5892 5893 5894 5895 5895 5896 5896 5897 5897 5897 5897 5898 5898 5898 5898 5898 5898 5898 5898 5897 5897 5897 5897 5897 5896 5896
5873 5872 5872 5872 5873 5873 5874 5875 5877 5878 5880 5881 5883 5884 5886 5888 5889 5890 5892 5893 5893 5894 5895 5896 5896 5896 5896 5897 5897 5897 5898 5898 5898 5898 5897 5897 5897 5897 5897 5897 5897 5897 5896
5869 5869 5868 5868 5869 5870 5871 5872 5873 5875 5877 5879 5880 5882 5884 5885 5887 5888 5890 5891 5892 5893 5894 5895 5895 5895 5895 5896 5897 5897 5897 5898 5898 5897 5898 5897 5897 5897 5897 5897 5897 5897 5897
5866 5865 5864 5863 5864 5865 5867 5869 5871 5873 5874 5876 5878 5880 5881 5883 5885 5886 5887 5889 5890 5892 5893 5893 5894 5895 5895 5896 5896 5897 5897 5897 5897 5897 5897 5897 5897 5897 5897 5897 5897 5897 5897
5863 5861 5861 5860 5861 5862 5864 5866 5867 5869 5872 5874 5875 5877 5879 5880 5882 5884 5885 5887 5888 5889 5891 5892 5893 5893 5894 5895 5896 5896 5896 5897 5897 5897 5897 5897 5897 5897 5897 5897 5897 5897 5897
5859 5858 5858 5857 5858 5859 5860 5863 5864 5866 5868 5871 5873 5875 5877 5878 5880 5882 5883 5885 5886 5888 5889 5890 5891 5892 5893 5894 5895 5895 5895 5896 5896 5896 5897 5897 5897 5897 5897 5897 5897 5897 5896
5856 5855 5855 5855 5855 5856 5857 5859 5862 5864 5865 5867 5870 5872 5874 5876 5878 5879 5881 5883 5884 5885 5887 5888 5889 5890 5891 5892 5893 5894 5894 5895 5895 5895 5896 5896 5896 5896 5896 5896 5896 5896 5895